Time,TemperatureF,DewpointF,PressureIn,WindDirection,WindDirectionDegrees,WindSpeedMPH,WindSpeedGustMPH,Humidity,HourlyPrecipIn,Conditions,Clouds,dailyrainin,SoftwareType,DateUTC
2013-06-14 00:02:00,62.6,57.7,29.35,SE,135,58.0,58.0,84,0.00,,SCT015,0.00,VWS V14.01,2013-06-14 07:02:00,
2013-06-14 00:07:00,62.6,57.7,29.35,SE,135,58.0,58.0,84,0.00,,SCT015,0.00,VWS V14.01,2013-06-14 07:07:00,
2013-06-14 00:12:00,62.8,57.5,29.35,SE,135,58.0,58.0,83,0.00,,SCT015,0.00,VWS V14.01,2013-06-14 07:12:00,
2013-06-14 00:17:00,62.8,57.9,29.35,SE,135,58.0,58.0,84,0.00,,BKN013,0.00,VWS V14.01,2013-06-14 07:17:00,
2013-06-14 00:22:00,62.8,57.9,29.35,SE,135,58.0,58.0,84,0.00,,BKN013,0.00,VWS V14.01,2013-06-14 07:22:00,
2013-06-14 00:27:00,62.8,57.5,29.35,SE,135,58.0,58.0,83,0.00,,BKN013,0.00,VWS V14.01,2013-06-14 07:27:00,
2013-06-14 00:32:00,62.8,57.9,29.35,SE,135,58.0,58.0,84,0.00,,BKN013,0.00,VWS V14.01,2013-06-14 07:32:00,
2013-06-14 00:37:00,62.6,57.4,29.35,SE,135,58.0,58.0,83,0.00,,BKN013,0.00,VWS V14.01,2013-06-14 07:37:00,
2013-06-14 00:42:00,62.6,57.4,29.35,SE,135,58.0,58.0,83,0.00,,BKN013,0.00,VWS V14.01,2013-06-14 07:42:00,
2013-06-14 00:47:00,62.6,57.4,29.35,SE,135,58.0,58.0,83,0.00,,BKN013,0.00,VWS V14.01,2013-06-14 07:47:00,
2013-06-14 00:52:00,62.6,57.7,29.35,SE,135,58.0,58.0,84,0.00,,BKN013,0.00,VWS V14.01,2013-06-14 07:52:00,
2013-06-14 00:57:00,62.6,57.7,29.35,SE,135,58.0,58.0,84,0.00,,BKN013,0.00,VWS V14.01,2013-06-14 07:57:00,
2013-06-14 01:02:00,62.4,57.5,29.35,SE,135,58.0,58.0,84,0.00,,OVC011,0.00,VWS V14.01,2013-06-14 08:02:00,
2013-06-14 01:07:00,62.6,57.7,29.35,SE,135,58.0,58.0,84,0.00,,OVC011,0.00,VWS V14.01,2013-06-14 08:07:00,
2013-06-14 01:12:00,62.6,57.7,29.35,SE,135,58.0,58.0,84,0.00,,OVC011,0.00,VWS V14.01,2013-06-14 08:12:00,
2013-06-14 01:17:00,62.6,57.7,29.35,SE,135,58.0,58.0,84,0.00,,OVC011,0.00,VWS V14.01,2013-06-14 08:17:00,
2013-06-14 01:22:00,62.6,57.4,29.35,SE,135,58.0,58.0,83,0.00,,OVC011,0.00,VWS V14.01,2013-06-14 08:22:00,
2013-06-14 01:27:00,62.6,57.7,29.35,SE,135,58.0,58.0,84,0.00,,OVC011,0.00,VWS V14.01,2013-06-14 08:27:00,
2013-06-14 01:32:00,62.6,57.4,29.35,SE,135,58.0,58.0,83,0.00,,OVC011,0.00,VWS V14.01,2013-06-14 08:32:00,
2013-06-14 01:37:00,62.6,57.4,29.35,SE,135,58.0,58.0,83,0.00,,OVC011,0.00,VWS V14.01,2013-06-14 08:37:00,
2013-06-14 01:42:00,62.6,57.4,29.35,SE,135,58.0,58.0,83,0.00,,OVC011,0.00,VWS V14.01,2013-06-14 08:42:00,
2013-06-14 01:47:00,62.6,57.4,29.32,SE,135,58.0,58.0,83,0.00,,OVC011,0.00,VWS V14.01,2013-06-14 08:47:00,
2013-06-14 01:52:00,62.6,57.4,29.32,SE,135,58.0,58.0,83,0.00,,OVC011,0.00,VWS V14.01,2013-06-14 08:52:00,
2013-06-14 01:57:00,62.6,57.4,29.32,SE,135,58.0,58.0,83,0.00,,OVC011,0.00,VWS V14.01,2013-06-14 08:57:00,
2013-06-14 02:02:00,62.6,57.0,29.32,SE,135,58.0,58.0,82,0.00,,OVC009,0.00,VWS V14.01,2013-06-14 09:02:00,
2013-06-14 02:07:00,62.6,57.0,29.32,SE,135,58.0,58.0,82,0.00,,OVC009,0.00,VWS V14.01,2013-06-14 09:07:00,
2013-06-14 02:12:00,62.4,56.9,29.32,SE,135,58.0,58.0,82,0.00,,OVC009,0.00,VWS V14.01,2013-06-14 09:12:00,
2013-06-14 02:17:00,62.4,56.9,29.32,SE,135,58.0,58.0,82,0.00,,OVC009,0.00,VWS V14.01,2013-06-14 09:17:00,
2013-06-14 02:22:00,62.4,57.2,29.32,SE,135,58.0,58.0,83,0.00,,OVC009,0.00,VWS V14.01,2013-06-14 09:22:00,
2013-06-14 02:27:00,62.6,57.0,29.32,SE,135,58.0,58.0,82,0.00,,OVC009,0.00,VWS V14.01,2013-06-14 09:27:00,
2013-06-14 02:32:00,62.6,57.0,29.35,SE,135,58.0,58.0,82,0.00,,OVC009,0.00,VWS V14.01,2013-06-14 09:32:00,
2013-06-14 02:37:00,62.6,57.0,29.35,SE,135,58.0,58.0,82,0.00,,OVC009,0.00,VWS V14.01,2013-06-14 09:37:00,
2013-06-14 02:42:00,62.6,57.0,29.35,SE,135,58.0,58.0,82,0.00,,OVC009,0.00,VWS V14.01,2013-06-14 09:42:00,
2013-06-14 02:47:00,62.6,57.4,29.32,SE,135,58.0,58.0,83,0.00,,OVC009,0.00,VWS V14.01,2013-06-14 09:47:00,
2013-06-14 02:52:00,62.4,57.2,29.32,SE,135,58.0,58.0,83,0.00,,OVC009,0.00,VWS V14.01,2013-06-14 09:52:00,
2013-06-14 02:57:00,62.6,57.4,29.32,SE,135,58.0,58.0,83,0.00,,OVC009,0.00,VWS V14.01,2013-06-14 09:57:00,
2013-06-14 03:02:00,62.4,57.2,29.32,SE,135,58.0,58.0,83,0.00,,OVC009,0.00,VWS V14.01,2013-06-14 10:02:00,
2013-06-14 03:07:00,62.4,57.2,29.32,SE,135,58.0,58.0,83,0.00,,OVC009,0.00,VWS V14.01,2013-06-14 10:07:00,
2013-06-14 03:12:00,62.4,57.2,29.32,SE,135,58.0,58.0,83,0.00,,OVC009,0.00,VWS V14.01,2013-06-14 10:12:00,
2013-06-14 03:17:00,62.2,57.3,29.32,SE,135,58.0,58.0,84,0.00,,OVC009,0.00,VWS V14.01,2013-06-14 10:17:00,
2013-06-14 03:22:00,62.2,57.0,29.32,SE,135,58.0,58.0,83,0.00,,OVC009,0.00,VWS V14.01,2013-06-14 10:22:00,
2013-06-14 03:27:00,62.2,57.0,29.32,SE,135,58.0,58.0,83,0.00,,OVC009,0.00,VWS V14.01,2013-06-14 10:27:00,
2013-06-14 03:32:00,62.2,57.0,29.32,SE,135,58.0,58.0,83,0.00,,OVC009,0.00,VWS V14.01,2013-06-14 10:32:00,
2013-06-14 03:37:00,62.2,57.0,29.32,SE,135,58.0,58.0,83,0.00,,OVC009,0.00,VWS V14.01,2013-06-14 10:37:00,
2013-06-14 03:42:00,62.1,56.8,29.32,SE,135,58.0,58.0,83,0.00,,OVC009,0.00,VWS V14.01,2013-06-14 10:42:00,
2013-06-14 03:47:00,62.1,56.8,29.35,SE,135,58.0,58.0,83,0.00,,OVC009,0.00,VWS V14.01,2013-06-14 10:47:00,
2013-06-14 03:52:00,61.9,56.7,29.35,SE,135,58.0,58.0,83,0.00,,OVC009,0.00,VWS V14.01,2013-06-14 10:52:00,
2013-06-14 03:57:00,61.9,56.7,29.35,SE,135,58.0,58.0,83,0.00,,OVC009,0.00,VWS V14.01,2013-06-14 10:57:00,
2013-06-14 04:02:00,61.9,56.7,29.32,SE,135,58.0,58.0,83,0.00,,OVC009,0.00,VWS V14.01,2013-06-14 11:02:00,
2013-06-14 04:07:00,61.9,57.0,29.32,SE,135,58.0,58.0,84,0.00,,OVC009,0.00,VWS V14.01,2013-06-14 11:07:00,
2013-06-14 04:12:00,61.9,57.0,29.32,SE,135,58.0,58.0,84,0.00,,OVC009,0.00,VWS V14.01,2013-06-14 11:12:00,
2013-06-14 04:17:00,61.9,57.0,29.32,SE,135,58.0,58.0,84,0.00,,OVC009,0.00,VWS V14.01,2013-06-14 11:17:00,
2013-06-14 04:22:00,61.9,57.0,29.32,SE,135,58.0,58.0,84,0.00,,OVC009,0.00,VWS V14.01,2013-06-14 11:22:00,
2013-06-14 04:27:00,61.9,57.0,29.32,SE,135,58.0,58.0,84,0.00,,OVC009,0.00,VWS V14.01,2013-06-14 11:27:00,
2013-06-14 04:32:00,61.9,57.0,29.32,SE,135,58.0,58.0,84,0.00,,OVC011,0.00,VWS V14.01,2013-06-14 11:32:00,
2013-06-14 04:37:00,61.9,57.3,29.32,SE,135,58.0,58.0,85,0.00,,OVC011,0.00,VWS V14.01,2013-06-14 11:37:00,
2013-06-14 04:42:00,61.9,57.0,29.32,SE,135,58.0,58.0,84,0.00,,OVC011,0.00,VWS V14.01,2013-06-14 11:42:00,
2013-06-14 04:47:00,61.9,57.0,29.32,SE,135,58.0,58.0,84,0.00,,OVC011,0.00,VWS V14.01,2013-06-14 11:47:00,
2013-06-14 04:52:00,61.9,57.3,29.32,SE,135,58.0,58.0,85,0.00,,OVC011,0.00,VWS V14.01,2013-06-14 11:52:00,
2013-06-14 04:57:00,61.9,57.0,29.32,SE,135,58.0,58.0,84,0.00,,OVC011,0.00,VWS V14.01,2013-06-14 11:57:00,
2013-06-14 05:02:00,61.9,57.0,29.35,SE,135,58.0,58.0,84,0.00,,OVC011,0.00,VWS V14.01,2013-06-14 12:02:00,
2013-06-14 05:07:00,61.9,57.3,29.35,SE,135,58.0,58.0,85,0.00,,OVC011,0.00,VWS V14.01,2013-06-14 12:07:00,
2013-06-14 05:12:00,61.9,57.3,29.35,SE,135,58.0,58.0,85,0.00,,OVC011,0.00,VWS V14.01,2013-06-14 12:12:00,
2013-06-14 05:17:00,61.9,57.0,29.35,SE,135,58.0,58.0,84,0.00,,OVC011,0.00,VWS V14.01,2013-06-14 12:17:00,
2013-06-14 05:22:00,61.9,57.0,29.35,SE,135,58.0,58.0,84,0.00,,OVC011,0.00,VWS V14.01,2013-06-14 12:22:00,
2013-06-14 05:27:00,61.7,56.8,29.35,SE,135,58.0,58.0,84,0.00,,OVC011,0.00,VWS V14.01,2013-06-14 12:27:00,
2013-06-14 05:32:00,61.9,57.0,29.35,SE,135,58.0,58.0,84,0.00,,OVC011,0.00,VWS V14.01,2013-06-14 12:32:00,
2013-06-14 05:37:00,61.9,57.0,29.35,SE,135,58.0,58.0,84,0.00,,OVC011,0.00,VWS V14.01,2013-06-14 12:37:00,
2013-06-14 05:42:00,61.9,57.0,29.35,SE,135,58.0,58.0,84,0.00,,OVC011,0.00,VWS V14.01,2013-06-14 12:42:00,
2013-06-14 05:47:00,61.9,57.0,29.35,SE,135,58.0,58.0,84,0.00,,OVC011,0.00,VWS V14.01,2013-06-14 12:47:00,
2013-06-14 05:52:00,61.9,57.0,29.35,SE,135,58.0,58.0,84,0.00,,OVC011,0.00,VWS V14.01,2013-06-14 12:52:00,
2013-06-14 05:57:00,61.7,56.8,29.35,SE,135,58.0,58.0,84,0.00,,OVC011,0.00,VWS V14.01,2013-06-14 12:57:00,
2013-06-14 06:02:00,61.9,57.3,29.35,SE,135,58.0,58.0,85,0.00,,OVC013,0.00,VWS V14.01,2013-06-14 13:02:00,
2013-06-14 06:07:00,61.9,57.0,29.35,SE,135,58.0,58.0,84,0.00,,OVC013,0.00,VWS V14.01,2013-06-14 13:07:00,
2013-06-14 06:12:00,61.9,57.0,29.35,SE,135,58.0,58.0,84,0.00,,OVC013,0.00,VWS V14.01,2013-06-14 13:12:00,
2013-06-14 06:17:00,61.9,57.0,29.35,SE,135,58.0,58.0,84,0.00,,OVC013,0.00,VWS V14.01,2013-06-14 13:17:00,
2013-06-14 06:22:00,61.9,57.0,29.35,SE,135,58.0,58.0,84,0.00,,OVC013,0.00,VWS V14.01,2013-06-14 13:22:00,
2013-06-14 06:27:00,61.9,57.0,29.35,SE,135,58.0,58.0,84,0.00,,OVC013,0.00,VWS V14.01,2013-06-14 13:27:00,
2013-06-14 06:32:00,61.9,57.0,29.35,SE,135,58.0,58.0,84,0.00,,OVC013,0.00,VWS V14.01,2013-06-14 13:32:00,
2013-06-14 06:37:00,61.9,57.3,29.35,SE,135,58.0,58.0,85,0.00,,OVC013,0.00,VWS V14.01,2013-06-14 13:37:00,
2013-06-14 06:42:00,61.9,57.3,29.35,SE,135,58.0,58.0,85,0.00,,OVC013,0.00,VWS V14.01,2013-06-14 13:42:00,
2013-06-14 06:47:00,61.9,57.3,29.35,SE,135,58.0,58.0,85,0.00,,OVC013,0.00,VWS V14.01,2013-06-14 13:47:00,
2013-06-14 06:52:00,62.1,57.5,29.35,SE,135,58.0,58.0,85,0.00,,OVC013,0.00,VWS V14.01,2013-06-14 13:52:00,
2013-06-14 06:57:00,62.1,57.2,29.35,SE,135,58.0,58.0,84,0.00,,OVC013,0.00,VWS V14.01,2013-06-14 13:57:00,
2013-06-14 07:02:00,62.2,57.3,29.35,SE,135,58.0,58.0,84,0.00,,OVC013,0.00,VWS V14.01,2013-06-14 14:02:00,
2013-06-14 07:07:00,62.2,57.0,29.35,SE,135,58.0,58.0,83,0.00,,OVC013,0.00,VWS V14.01,2013-06-14 14:07:00,
2013-06-14 07:12:00,62.2,57.0,29.35,SE,135,58.0,58.0,83,0.00,,OVC013,0.00,VWS V14.01,2013-06-14 14:12:00,
2013-06-14 07:17:00,62.4,57.2,29.35,SE,135,58.0,58.0,83,0.00,,OVC015,0.00,VWS V14.01,2013-06-14 14:17:00,
2013-06-14 07:22:00,62.6,57.0,29.35,SE,135,58.0,58.0,82,0.00,,OVC015,0.00,VWS V14.01,2013-06-14 14:22:00,
2013-06-14 07:27:00,62.6,57.0,29.35,SE,135,58.0,58.0,82,0.00,,OVC015,0.00,VWS V14.01,2013-06-14 14:27:00,
2013-06-14 07:32:00,62.8,57.2,29.35,SE,135,58.0,58.0,82,0.00,,OVC015,0.00,VWS V14.01,2013-06-14 14:32:00,
2013-06-14 07:37:00,63.0,57.4,29.35,SE,135,58.0,58.0,82,0.00,,OVC015,0.00,VWS V14.01,2013-06-14 14:37:00,
2013-06-14 07:42:00,63.0,57.4,29.35,SE,135,58.0,58.0,82,0.00,,OVC015,0.00,VWS V14.01,2013-06-14 14:42:00,
2013-06-14 07:47:00,63.0,57.0,29.38,SE,135,58.0,58.0,81,0.00,,OVC015,0.00,VWS V14.01,2013-06-14 14:47:00,
2013-06-14 07:52:00,63.0,57.4,29.38,SE,135,58.0,58.0,82,0.00,,OVC015,0.00,VWS V14.01,2013-06-14 14:52:00,
2013-06-14 07:57:00,63.1,57.6,29.38,SE,135,58.0,58.0,82,0.00,,OVC015,0.00,VWS V14.01,2013-06-14 14:57:00,
2013-06-14 08:02:00,63.5,57.9,29.38,SE,135,58.0,58.0,82,0.00,,BKN015,0.00,VWS V14.01,2013-06-14 15:02:00,
2013-06-14 08:07:00,63.5,57.6,29.38,SE,135,58.0,58.0,81,0.00,,BKN015,0.00,VWS V14.01,2013-06-14 15:07:00,
2013-06-14 08:12:00,63.5,57.6,29.38,SE,135,58.0,58.0,81,0.00,,BKN015,0.00,VWS V14.01,2013-06-14 15:12:00,
2013-06-14 08:17:00,63.9,58.3,29.38,SE,135,58.0,58.0,82,0.00,,BKN015,0.00,VWS V14.01,2013-06-14 15:17:00,
2013-06-14 08:22:00,63.7,57.8,29.38,SE,135,58.0,58.0,81,0.00,,BKN015,0.00,VWS V14.01,2013-06-14 15:22:00,
2013-06-14 08:27:00,63.9,57.9,29.38,SE,135,58.0,58.0,81,0.00,,BKN015,0.00,VWS V14.01,2013-06-14 15:27:00,
2013-06-14 08:32:00,63.9,57.6,29.38,SE,135,58.0,58.0,80,0.00,,BKN015,0.00,VWS V14.01,2013-06-14 15:32:00,
2013-06-14 08:37:00,63.9,57.6,29.38,SE,135,58.0,58.0,80,0.00,,BKN015,0.00,VWS V14.01,2013-06-14 15:37:00,
2013-06-14 08:42:00,64.0,57.4,29.38,SE,135,58.0,58.0,79,0.00,,BKN015,0.00,VWS V14.01,2013-06-14 15:42:00,
2013-06-14 08:47:00,64.0,57.4,29.38,SE,135,58.0,58.0,79,0.00,,BKN015,0.00,VWS V14.01,2013-06-14 15:47:00,
2013-06-14 08:52:00,64.4,57.8,29.38,SE,135,58.0,58.0,79,0.00,,BKN015,10.83,VWS V14.01,2013-06-14 15:52:00,
2013-06-14 08:57:00,64.8,57.8,29.38,SE,135,58.0,58.0,78,0.00,,BKN015,10.83,VWS V14.01,2013-06-14 15:57:00,
2013-06-14 09:02:00,65.1,58.1,29.35,SE,135,58.0,58.0,78,0.00,,BKN017,10.83,VWS V14.01,2013-06-14 16:02:00,
2013-06-14 09:07:00,65.3,57.9,29.35,SE,135,58.0,58.0,77,0.00,,BKN017,10.83,VWS V14.01,2013-06-14 16:07:00,
2013-06-14 09:12:00,65.3,57.5,29.35,SE,135,58.0,58.0,76,0.00,,BKN017,10.83,VWS V14.01,2013-06-14 16:12:00,
2013-06-14 09:17:00,65.7,57.9,29.38,SE,135,58.0,58.0,76,0.00,,BKN017,10.83,VWS V14.01,2013-06-14 16:17:00,
2013-06-14 09:22:00,65.7,56.8,29.38,SE,135,58.0,58.0,73,0.00,,BKN017,10.83,VWS V14.01,2013-06-14 16:22:00,
2013-06-14 09:27:00,65.8,57.3,29.38,SE,135,58.0,58.0,74,0.00,,BKN017,10.83,VWS V14.01,2013-06-14 16:27:00,
2013-06-14 09:32:00,66.4,57.5,29.35,SE,135,58.0,58.0,73,0.00,,BKN017,10.83,VWS V14.01,2013-06-14 16:32:00,
2013-06-14 09:37:00,66.6,57.3,29.35,SE,135,58.0,58.0,72,0.00,,BKN017,10.83,VWS V14.01,2013-06-14 16:37:00,
2013-06-14 09:42:00,67.1,57.8,29.35,SE,135,58.0,58.0,72,0.00,,BKN017,10.83,VWS V14.01,2013-06-14 16:42:00,
2013-06-14 09:47:00,67.5,57.7,29.35,SE,135,58.0,58.0,71,0.00,,BKN017,10.83,VWS V14.01,2013-06-14 16:47:00,
2013-06-14 09:52:00,68.0,57.9,29.35,SE,135,58.0,58.0,70,0.00,,BKN017,10.83,VWS V14.01,2013-06-14 16:52:00,
2013-06-14 09:57:00,68.5,58.0,29.35,SE,135,58.0,58.0,69,0.00,,BKN017,10.83,VWS V14.01,2013-06-14 16:57:00,
2013-06-14 10:02:00,69.1,58.5,29.38,SE,135,58.0,58.0,69,0.00,,OVC020,10.83,VWS V14.01,2013-06-14 17:02:00,
2013-06-14 10:07:00,69.6,58.6,29.38,SE,135,58.0,58.0,68,0.00,,OVC020,10.83,VWS V14.01,2013-06-14 17:07:00,
2013-06-14 10:12:00,70.2,57.9,29.38,SE,135,58.0,58.0,65,0.00,,OVC020,10.83,VWS V14.01,2013-06-14 17:12:00,
2013-06-14 10:17:00,70.7,57.9,29.35,SE,135,58.0,58.0,64,0.00,,OVC020,10.83,VWS V14.01,2013-06-14 17:17:00,
2013-06-14 10:22:00,71.1,57.8,29.35,SE,135,58.0,58.0,63,0.00,,OVC020,10.83,VWS V14.01,2013-06-14 17:22:00,
2013-06-14 10:27:00,71.8,59.0,29.35,SE,135,58.0,58.0,64,0.00,,OVC020,10.83,VWS V14.01,2013-06-14 17:27:00,
2013-06-14 10:32:00,71.6,57.0,29.35,SE,135,58.0,58.0,60,0.00,,OVC020,10.83,VWS V14.01,2013-06-14 17:32:00,
2013-06-14 10:37:00,73.2,59.0,29.35,SE,135,58.0,58.0,61,0.00,,OVC020,10.83,VWS V14.01,2013-06-14 17:37:00,
2013-06-14 10:42:00,73.4,57.3,29.35,SE,135,58.0,58.0,57,0.00,,OVC020,10.83,VWS V14.01,2013-06-14 17:42:00,
2013-06-14 10:47:00,73.8,57.6,29.35,SE,135,58.0,58.0,57,0.00,,OVC020,10.83,VWS V14.01,2013-06-14 17:47:00,
2013-06-14 10:52:00,74.3,57.6,29.35,SE,135,58.0,58.0,56,0.00,,OVC020,10.83,VWS V14.01,2013-06-14 17:52:00,
2013-06-14 10:57:00,74.5,56.2,29.35,SE,135,58.0,58.0,53,0.00,,OVC020,10.83,VWS V14.01,2013-06-14 17:57:00,
2013-06-14 11:02:00,74.8,57.6,29.35,SE,135,58.0,58.0,55,0.00,,BKN020,10.83,VWS V14.01,2013-06-14 18:02:00,
2013-06-14 11:07:00,75.6,57.2,29.35,SE,135,58.0,58.0,53,0.00,,BKN020,10.83,VWS V14.01,2013-06-14 18:07:00,
2013-06-14 11:12:00,77.0,58.6,29.35,SE,135,58.0,58.0,53,0.00,,BKN020,10.83,VWS V14.01,2013-06-14 18:12:00,
2013-06-14 11:17:00,78.4,58.3,29.35,SE,135,58.0,58.0,50,0.00,,BKN020,10.83,VWS V14.01,2013-06-14 18:17:00,
2013-06-14 11:22:00,78.4,57.1,29.35,SE,135,58.0,58.0,48,0.00,,BKN020,10.83,VWS V14.01,2013-06-14 18:22:00,
2013-06-14 11:27:00,77.4,55.6,29.35,SE,135,58.0,58.0,47,0.00,,BKN020,10.83,VWS V14.01,2013-06-14 18:27:00,
2013-06-14 11:32:00,76.8,55.7,29.35,SE,135,58.0,58.0,48,0.00,,BKN020,10.83,VWS V14.01,2013-06-14 18:32:00,
2013-06-14 11:37:00,78.4,57.1,29.35,SE,135,58.0,58.0,48,0.00,,BKN020,10.83,VWS V14.01,2013-06-14 18:37:00,
2013-06-14 11:42:00,78.8,55.1,29.35,SE,135,58.0,58.0,44,0.00,,BKN020,10.83,VWS V14.01,2013-06-14 18:42:00,
2013-06-14 11:48:00,79.3,56.8,29.35,SE,135,58.0,58.0,46,0.00,,SCT020,10.83,VWS V14.01,2013-06-14 18:48:00,
2013-06-14 11:53:00,79.5,56.3,29.35,SE,135,58.0,58.0,45,0.00,,SCT020,10.83,VWS V14.01,2013-06-14 18:53:00,
2013-06-14 11:58:00,79.2,55.4,29.35,SE,135,58.0,58.0,44,0.00,,SCT020,10.83,VWS V14.01,2013-06-14 18:58:00,
2013-06-14 12:03:00,79.7,55.2,29.35,SE,135,58.0,58.0,43,0.00,,SCT020,10.83,VWS V14.01,2013-06-14 19:03:00,
2013-06-14 12:08:00,80.6,56.1,29.35,SE,135,58.0,58.0,43,0.00,,SCT020,10.83,VWS V14.01,2013-06-14 19:08:00,
2013-06-14 12:13:00,80.1,54.9,29.35,SE,135,58.0,58.0,42,0.00,,SCT020,10.83,VWS V14.01,2013-06-14 19:13:00,
2013-06-14 12:18:00,80.4,54.6,29.35,SE,135,58.0,58.0,41,0.00,,SCT020,10.83,VWS V14.01,2013-06-14 19:18:00,
2013-06-14 12:23:00,81.7,56.4,29.35,SE,135,58.0,58.0,42,0.00,,SCT020,10.83,VWS V14.01,2013-06-14 19:23:00,
2013-06-14 12:28:00,80.2,54.4,29.35,SE,135,58.0,58.0,41,0.00,,SCT020,10.83,VWS V14.01,2013-06-14 19:28:00,
2013-06-14 12:33:00,81.3,56.1,29.35,SE,135,58.0,58.0,42,0.00,,SCT020,10.83,VWS V14.01,2013-06-14 19:33:00,
2013-06-14 12:38:00,82.0,56.0,29.35,SE,135,58.0,58.0,41,0.00,,SCT020,10.83,VWS V14.01,2013-06-14 19:38:00,
2013-06-14 12:43:00,82.6,55.8,29.35,SE,135,58.0,58.0,40,0.00,,SCT020,10.83,VWS V14.01,2013-06-14 19:43:00,
2013-06-14 12:48:00,82.4,55.7,29.35,SE,135,58.0,58.0,40,0.00,,SCT020,10.83,VWS V14.01,2013-06-14 19:48:00,
2013-06-14 12:53:00,82.9,56.2,29.35,SE,135,58.0,58.0,40,0.00,,SCT020,10.83,VWS V14.01,2013-06-14 19:53:00,
2013-06-14 12:58:00,81.7,53.6,29.35,SE,135,58.0,58.0,38,0.00,,SCT020,10.83,VWS V14.01,2013-06-14 19:58:00,
2013-06-14 13:03:00,81.3,54.0,29.35,SE,135,58.0,58.0,39,0.00,,FEW020,10.83,VWS V14.01,2013-06-14 20:03:00,
2013-06-14 13:08:00,82.4,55.0,29.35,SE,135,58.0,58.0,39,0.00,,FEW020,10.83,VWS V14.01,2013-06-14 20:08:00,
2013-06-14 13:13:00,82.6,55.1,29.35,SE,135,58.0,58.0,39,0.00,,FEW020,10.83,VWS V14.01,2013-06-14 20:13:00,
2013-06-14 13:18:00,82.4,54.3,29.35,SE,135,58.0,58.0,38,0.00,,FEW020,10.83,VWS V14.01,2013-06-14 20:18:00,
2013-06-14 13:23:00,81.7,54.3,29.35,SE,135,58.0,58.0,39,0.00,,FEW020,10.83,VWS V14.01,2013-06-14 20:23:00,
2013-06-14 13:28:00,82.8,55.3,29.35,SE,135,58.0,58.0,39,0.00,,FEW020,10.83,VWS V14.01,2013-06-14 20:28:00,
2013-06-14 13:33:00,83.1,54.9,29.35,SE,135,58.0,58.0,38,0.00,,FEW020,10.83,VWS V14.01,2013-06-14 20:33:00,
2013-06-14 13:38:00,82.9,54.0,29.35,SE,135,58.0,58.0,37,0.00,,FEW020,10.83,VWS V14.01,2013-06-14 20:38:00,
2013-06-14 13:43:00,83.3,54.3,29.35,SE,135,58.0,58.0,37,0.00,,FEW020,10.83,VWS V14.01,2013-06-14 20:43:00,
2013-06-14 13:48:00,82.8,54.6,29.32,SE,135,58.0,58.0,38,0.00,,FEW020,10.83,VWS V14.01,2013-06-14 20:48:00,
2013-06-14 13:53:00,82.6,54.4,29.32,SE,135,58.0,58.0,38,0.00,,FEW020,10.83,VWS V14.01,2013-06-14 20:53:00,
2013-06-14 13:58:00,84.0,54.2,29.32,SE,135,58.0,58.0,36,0.00,,FEW020,10.83,VWS V14.01,2013-06-14 20:58:00,
2013-06-14 14:03:00,82.6,53.0,29.29,SE,135,58.0,58.0,36,0.00,,FEW020,10.83,VWS V14.01,2013-06-14 21:03:00,
2013-06-14 14:08:00,84.0,55.0,29.29,SE,135,58.0,58.0,37,0.00,,FEW020,10.83,VWS V14.01,2013-06-14 21:08:00,
2013-06-14 14:13:00,84.4,53.8,29.29,SE,135,58.0,58.0,35,0.00,,FEW020,10.83,VWS V14.01,2013-06-14 21:13:00,
2013-06-14 14:18:00,82.8,52.3,29.32,SE,135,58.0,58.0,35,0.00,,FEW020,10.83,VWS V14.01,2013-06-14 21:18:00,
2013-06-14 14:23:00,82.8,52.3,29.32,SE,135,58.0,58.0,35,0.00,,FEW020,10.83,VWS V14.01,2013-06-14 21:23:00,
2013-06-14 14:28:00,83.5,54.5,29.32,SE,135,58.0,58.0,37,0.00,,FEW020,10.83,VWS V14.01,2013-06-14 21:28:00,
2013-06-14 14:33:00,83.1,52.7,29.32,SE,135,58.0,58.0,35,0.00,,FEW020,10.83,VWS V14.01,2013-06-14 21:33:00,
2013-06-14 14:38:00,82.8,52.3,29.32,SE,135,58.0,58.0,35,0.00,,FEW020,10.83,VWS V14.01,2013-06-14 21:38:00,
2013-06-14 14:43:00,82.8,51.6,29.32,SE,135,58.0,58.0,34,0.00,,FEW020,10.83,VWS V14.01,2013-06-14 21:43:00,
2013-06-14 14:48:00,82.9,52.5,29.32,SE,135,58.0,58.0,35,0.00,,FEW020,10.83,VWS V14.01,2013-06-14 21:48:00,
2013-06-14 14:53:00,83.8,53.3,29.32,SE,135,58.0,58.0,35,0.00,,FEW020,10.83,VWS V14.01,2013-06-14 21:53:00,
2013-06-14 14:58:00,83.7,52.3,29.32,SE,135,58.0,58.0,34,0.00,,FEW020,10.83,VWS V14.01,2013-06-14 21:58:00,
2013-06-14 15:03:00,84.7,53.3,29.32,SE,135,58.0,58.0,34,0.00,,FEW020,10.83,VWS V14.01,2013-06-14 22:03:00,
2013-06-14 15:08:00,83.7,51.5,29.32,SE,135,58.0,58.0,33,0.00,,FEW020,10.83,VWS V14.01,2013-06-14 22:08:00,
2013-06-14 15:13:00,84.2,52.0,29.32,SE,135,58.0,58.0,33,0.00,,FEW020,10.83,VWS V14.01,2013-06-14 22:13:00,
2013-06-14 15:18:00,83.8,52.5,29.32,SE,135,58.0,58.0,34,0.00,,FEW020,10.83,VWS V14.01,2013-06-14 22:18:00,
2013-06-14 15:23:00,84.0,52.7,29.32,SE,135,58.0,58.0,34,0.00,,FEW020,10.83,VWS V14.01,2013-06-14 22:23:00,
2013-06-14 15:28:00,83.8,52.5,29.32,SE,135,58.0,58.0,34,0.00,,FEW020,10.83,VWS V14.01,2013-06-14 22:28:00,
2013-06-14 15:33:00,84.0,53.5,29.32,SE,135,58.0,58.0,35,0.00,,FEW020,10.83,VWS V14.01,2013-06-14 22:33:00,
2013-06-14 15:38:00,83.5,53.0,29.32,SE,135,58.0,58.0,35,0.00,,FEW020,10.83,VWS V14.01,2013-06-14 22:38:00,
2013-06-14 15:43:00,84.7,53.3,29.32,SE,135,58.0,58.0,34,0.00,,FEW020,10.83,VWS V14.01,2013-06-14 22:43:00,
2013-06-14 15:48:00,82.4,51.2,29.32,SE,135,58.0,58.0,34,0.00,,FEW020,10.83,VWS V14.01,2013-06-14 22:48:00,
2013-06-14 15:53:00,81.9,50.8,29.32,SE,135,58.0,58.0,34,0.00,,FEW020,10.83,VWS V14.01,2013-06-14 22:53:00,
2013-06-14 15:58:00,82.8,52.3,29.32,SE,135,58.0,58.0,35,0.00,,FEW020,10.83,VWS V14.01,2013-06-14 22:58:00,
2013-06-14 16:03:00,83.3,52.0,29.32,SE,135,58.0,58.0,34,0.00,,FEW020,10.83,VWS V14.01,2013-06-14 23:03:00,
2013-06-14 16:08:00,82.6,51.4,29.32,SE,135,58.0,58.0,34,0.00,,FEW020,10.83,VWS V14.01,2013-06-14 23:08:00,
2013-06-14 16:13:00,82.0,51.7,29.32,SE,135,58.0,58.0,35,0.00,,FEW020,10.83,VWS V14.01,2013-06-14 23:13:00,
2013-06-14 16:18:00,81.0,50.8,29.32,SE,135,58.0,58.0,35,0.00,,FEW020,10.83,VWS V14.01,2013-06-14 23:18:00,
2013-06-14 16:23:00,82.6,52.2,29.32,SE,135,58.0,58.0,35,0.00,,FEW020,10.83,VWS V14.01,2013-06-14 23:23:00,
2013-06-14 16:28:00,82.6,52.2,29.32,SE,135,58.0,58.0,35,0.00,,FEW020,10.83,VWS V14.01,2013-06-14 23:28:00,
2013-06-14 16:33:00,82.0,51.7,29.32,SE,135,58.0,58.0,35,0.00,,FEW020,10.83,VWS V14.01,2013-06-14 23:33:00,
2013-06-14 16:38:00,81.3,51.1,29.32,SE,135,58.0,58.0,35,0.00,,FEW020,10.83,VWS V14.01,2013-06-14 23:38:00,
2013-06-14 16:43:00,81.3,51.1,29.32,SE,135,58.0,58.0,35,0.00,,FEW020,10.83,VWS V14.01,2013-06-14 23:43:00,
2013-06-14 16:48:00,81.5,52.0,29.32,SE,135,58.0,58.0,36,0.00,,FEW020,10.83,VWS V14.01,2013-06-14 23:48:00,
2013-06-14 16:53:00,81.1,51.7,29.32,SE,135,58.0,58.0,36,0.00,,FEW020,10.83,VWS V14.01,2013-06-14 23:53:00,
2013-06-14 16:58:00,80.6,51.2,29.32,SE,135,58.0,58.0,36,0.00,,FEW020,10.83,VWS V14.01,2013-06-14 23:58:00,
2013-06-14 17:03:00,79.5,51.0,29.29,SE,135,58.0,58.0,37,0.00,,FEW180,10.83,VWS V14.01,2013-06-15 00:03:00,
2013-06-14 17:08:00,80.2,52.3,29.29,SE,135,58.0,58.0,38,0.00,,FEW180,10.83,VWS V14.01,2013-06-15 00:08:00,
2013-06-14 17:13:00,79.7,51.9,29.29,SE,135,58.0,58.0,38,0.00,,FEW180,10.83,VWS V14.01,2013-06-15 00:13:00,
2013-06-14 17:18:00,79.3,51.5,29.29,SE,135,58.0,58.0,38,0.00,,FEW180,10.83,VWS V14.01,2013-06-15 00:18:00,
2013-06-14 17:23:00,79.0,51.2,29.29,SE,135,58.0,58.0,38,0.00,,FEW180,10.83,VWS V14.01,2013-06-15 00:23:00,
2013-06-14 17:28:00,78.4,51.5,29.29,SE,135,58.0,58.0,39,0.00,,FEW180,10.83,VWS V14.01,2013-06-15 00:28:00,
2013-06-14 17:33:00,77.9,51.7,29.29,SE,135,58.0,58.0,40,0.00,,FEW180,10.83,VWS V14.01,2013-06-15 00:33:00,
2013-06-14 17:38:00,77.0,50.9,29.29,SE,135,58.0,58.0,40,0.00,,FEW180,10.83,VWS V14.01,2013-06-15 00:38:00,
2013-06-14 17:43:00,76.1,50.7,29.29,SE,135,58.0,58.0,41,0.00,,FEW180,10.83,VWS V14.01,2013-06-15 00:43:00,
2013-06-14 17:48:00,76.3,51.5,29.29,SE,135,58.0,58.0,42,0.00,,FEW180,10.83,VWS V14.01,2013-06-15 00:48:00,
2013-06-14 17:53:00,75.6,50.9,29.29,SE,135,58.0,58.0,42,0.00,,FEW180,10.83,VWS V14.01,2013-06-15 00:53:00,
2013-06-14 17:58:00,75.0,51.0,29.29,SE,135,58.0,58.0,43,0.00,,FEW180,10.83,VWS V14.01,2013-06-15 00:58:00,
2013-06-14 18:03:00,74.5,51.2,29.32,SE,135,58.0,58.0,44,0.00,,FEW016,10.83,VWS V14.01,2013-06-15 01:03:00,
2013-06-14 18:08:00,74.1,50.8,29.32,SE,135,58.0,58.0,44,0.00,,FEW016,10.83,VWS V14.01,2013-06-15 01:08:00,
2013-06-14 18:13:00,73.0,50.5,29.32,SE,135,58.0,58.0,45,0.00,,FEW016,10.83,VWS V14.01,2013-06-15 01:13:00,
2013-06-14 18:18:00,72.0,50.7,29.32,SE,135,58.0,58.0,47,0.00,,FEW016,10.83,VWS V14.01,2013-06-15 01:18:00,
2013-06-14 18:23:00,71.8,51.6,29.32,SE,135,58.0,58.0,49,0.00,,FEW016,10.83,VWS V14.01,2013-06-15 01:23:00,
2013-06-14 18:28:00,70.9,51.3,29.32,SE,135,58.0,58.0,50,0.00,,FEW016,10.83,VWS V14.01,2013-06-15 01:28:00,
2013-06-14 18:33:00,70.5,51.5,29.32,SE,135,58.0,58.0,51,0.00,,FEW016,10.83,VWS V14.01,2013-06-15 01:33:00,
2013-06-14 18:38:00,69.8,51.4,29.32,SE,135,58.0,58.0,52,0.00,,FEW016,10.83,VWS V14.01,2013-06-15 01:38:00,
2013-06-14 18:43:00,69.1,51.8,29.32,SE,135,58.0,58.0,54,0.00,,FEW016,10.83,VWS V14.01,2013-06-15 01:43:00,
2013-06-14 18:48:00,68.9,52.1,29.32,SE,135,58.0,58.0,55,0.00,,FEW016,10.83,VWS V14.01,2013-06-15 01:48:00,
2013-06-14 18:53:00,68.4,52.1,29.32,SE,135,58.0,58.0,56,0.00,,FEW016,10.83,VWS V14.01,2013-06-15 01:53:00,
2013-06-14 18:58:00,67.8,52.0,29.32,SE,135,58.0,58.0,57,0.00,,FEW016,10.83,VWS V14.01,2013-06-15 01:58:00,
2013-06-14 19:03:00,67.3,52.5,29.32,SE,135,58.0,58.0,59,0.00,,FEW016,10.83,VWS V14.01,2013-06-15 02:03:00,
2013-06-14 19:08:00,66.7,52.4,29.32,SE,135,58.0,58.0,60,0.00,,FEW016,10.83,VWS V14.01,2013-06-15 02:08:00,
2013-06-14 19:13:00,66.6,53.2,29.32,SE,135,58.0,58.0,62,0.00,,FEW016,10.83,VWS V14.01,2013-06-15 02:13:00,
2013-06-14 19:18:00,66.4,52.5,29.32,SE,135,58.0,58.0,61,0.00,,FEW016,10.83,VWS V14.01,2013-06-15 02:18:00,
2013-06-14 19:23:00,65.8,53.3,29.32,SE,135,58.0,58.0,64,0.00,,FEW016,10.83,VWS V14.01,2013-06-15 02:23:00,
2013-06-14 19:28:00,65.7,53.2,29.32,SE,135,58.0,58.0,64,0.00,,FEW016,10.83,VWS V14.01,2013-06-15 02:28:00,
2013-06-14 19:33:00,65.3,52.8,29.32,SE,135,58.0,58.0,64,0.00,,FEW016,10.83,VWS V14.01,2013-06-15 02:33:00,
2013-06-14 19:38:00,64.8,52.3,29.32,SE,135,58.0,58.0,64,0.00,,FEW016,10.83,VWS V14.01,2013-06-15 02:38:00,
2013-06-14 19:43:00,64.4,52.4,29.32,SE,135,58.0,58.0,65,0.00,,FEW016,10.83,VWS V14.01,2013-06-15 02:43:00,
2013-06-14 19:48:00,63.9,52.7,29.32,SE,135,58.0,58.0,67,0.00,,FEW016,10.83,VWS V14.01,2013-06-15 02:48:00,
2013-06-14 19:53:00,63.7,52.5,29.32,SE,135,58.0,58.0,67,0.00,,FEW016,10.83,VWS V14.01,2013-06-15 02:53:00,
2013-06-14 19:58:00,63.1,52.4,29.32,SE,135,58.0,58.0,68,0.00,,FEW016,10.83,VWS V14.01,2013-06-15 02:58:00,
2013-06-14 20:03:00,62.8,52.5,29.29,SE,135,58.0,58.0,69,0.00,,FEW016,10.83,VWS V14.01,2013-06-15 03:03:00,
2013-06-14 20:08:00,62.6,52.3,29.29,SE,135,58.0,58.0,69,0.00,,FEW016,10.83,VWS V14.01,2013-06-15 03:08:00,
2013-06-14 20:13:00,62.4,52.5,29.29,SE,135,58.0,58.0,70,0.00,,FEW016,10.83,VWS V14.01,2013-06-15 03:13:00,
2013-06-14 20:18:00,62.1,52.9,29.32,SE,135,58.0,58.0,72,0.00,,FEW016,10.83,VWS V14.01,2013-06-15 03:18:00,
2013-06-14 20:23:00,61.7,52.6,29.32,SE,135,58.0,58.0,72,0.00,,FEW016,10.83,VWS V14.01,2013-06-15 03:23:00,
2013-06-14 20:28:00,61.3,52.6,29.32,SE,135,58.0,58.0,73,0.00,,FEW016,10.83,VWS V14.01,2013-06-15 03:28:00,
2013-06-14 20:33:00,61.0,52.3,29.32,SE,135,58.0,58.0,73,0.00,,FEW016,10.83,VWS V14.01,2013-06-15 03:33:00,
2013-06-14 20:38:00,61.0,53.0,29.32,SE,135,58.0,58.0,75,0.00,,FEW016,10.83,VWS V14.01,2013-06-15 03:38:00,
2013-06-14 20:43:00,60.8,52.5,29.32,SE,135,58.0,58.0,74,0.00,,FEW016,10.83,VWS V14.01,2013-06-15 03:43:00,
2013-06-14 20:48:00,60.4,52.5,29.32,SE,135,58.0,58.0,75,0.00,,FEW016,10.83,VWS V14.01,2013-06-15 03:48:00,
2013-06-14 20:53:00,60.3,52.7,29.32,SE,135,58.0,58.0,76,0.00,,FEW016,10.83,VWS V14.01,2013-06-15 03:53:00,
2013-06-14 20:58:00,60.1,52.5,29.32,SE,135,58.0,58.0,76,0.00,,FEW016,10.83,VWS V14.01,2013-06-15 03:58:00,
2013-06-14 21:01:00,60.1,52.9,29.32,SE,135,58.0,58.0,77,0.00,,FEW018,10.83,VWS V14.01,2013-06-15 04:01:00,
2013-06-14 21:02:00,60.1,52.9,29.32,SE,135,58.0,58.0,77,0.00,,FEW018,10.83,VWS V14.01,2013-06-15 04:02:00,
2013-06-14 21:07:00,60.1,52.9,29.32,SE,135,58.0,58.0,77,0.00,,FEW018,10.83,VWS V14.01,2013-06-15 04:07:00,
2013-06-14 21:12:00,60.1,53.2,29.32,SE,135,58.0,58.0,78,0.00,,FEW018,10.83,VWS V14.01,2013-06-15 04:12:00,
2013-06-14 21:17:00,60.3,53.4,29.32,SE,135,58.0,58.0,78,0.00,,FEW018,10.83,VWS V14.01,2013-06-15 04:17:00,
2013-06-14 21:22:00,60.4,53.9,29.32,SE,135,58.0,58.0,79,0.00,,FEW018,10.83,VWS V14.01,2013-06-15 04:22:00,
2013-06-14 21:27:00,60.4,53.9,29.32,SE,135,58.0,58.0,79,0.00,,FEW018,10.83,VWS V14.01,2013-06-15 04:27:00,
2013-06-14 21:32:00,60.4,53.9,29.35,SE,135,58.0,58.0,79,0.00,,FEW018,10.83,VWS V14.01,2013-06-15 04:32:00,
2013-06-14 21:37:00,60.4,53.9,29.35,SE,135,58.0,58.0,79,0.00,,FEW018,10.83,VWS V14.01,2013-06-15 04:37:00,
2013-06-14 21:42:00,60.6,54.1,29.35,SE,135,58.0,58.0,79,0.00,,FEW018,10.83,VWS V14.01,2013-06-15 04:42:00,
2013-06-14 21:47:00,60.6,54.1,29.35,SE,135,58.0,58.0,79,0.00,,FEW018,10.83,VWS V14.01,2013-06-15 04:47:00,
2013-06-14 21:52:00,60.6,53.7,29.35,SE,135,58.0,58.0,78,0.00,,FEW018,10.83,VWS V14.01,2013-06-15 04:52:00,
2013-06-14 21:57:00,60.6,54.1,29.35,SE,135,58.0,58.0,79,0.00,,FEW018,10.83,VWS V14.01,2013-06-15 04:57:00,
2013-06-14 22:02:00,60.6,53.7,29.35,SE,135,58.0,58.0,78,0.00,,SCT021,10.83,VWS V14.01,2013-06-15 05:02:00,
2013-06-14 22:07:00,60.8,53.9,29.35,SE,135,58.0,58.0,78,0.00,,SCT021,10.83,VWS V14.01,2013-06-15 05:07:00,
2013-06-14 22:12:00,60.8,53.5,29.35,SE,135,58.0,58.0,77,0.00,,SCT021,10.83,VWS V14.01,2013-06-15 05:12:00,
2013-06-14 22:17:00,61.0,54.1,29.35,SE,135,58.0,58.0,78,0.00,,SCT021,10.83,VWS V14.01,2013-06-15 05:17:00,
2013-06-14 22:22:00,61.0,53.7,29.35,SE,135,58.0,58.0,77,0.00,,SCT021,10.83,VWS V14.01,2013-06-15 05:22:00,
2013-06-14 22:27:00,61.0,54.1,29.35,SE,135,58.0,58.0,78,0.00,,SCT021,10.83,VWS V14.01,2013-06-15 05:27:00,
2013-06-14 22:32:00,61.0,54.1,29.38,SE,135,58.0,58.0,78,0.00,,SCT021,10.83,VWS V14.01,2013-06-15 05:32:00,
2013-06-14 22:37:00,61.2,54.3,29.38,SE,135,58.0,58.0,78,0.00,,SCT021,10.83,VWS V14.01,2013-06-15 05:37:00,
2013-06-14 22:42:00,61.2,54.3,29.38,SE,135,58.0,58.0,78,0.00,,SCT021,10.83,VWS V14.01,2013-06-15 05:42:00,
2013-06-14 22:47:00,61.2,54.3,29.35,SE,135,58.0,58.0,78,0.00,,BKN019,10.83,VWS V14.01,2013-06-15 05:47:00,
2013-06-14 22:52:00,61.2,54.3,29.35,SE,135,58.0,58.0,78,0.00,,BKN019,10.83,VWS V14.01,2013-06-15 05:52:00,
2013-06-14 22:57:00,61.2,54.3,29.35,SE,135,58.0,58.0,78,0.00,,BKN019,10.83,VWS V14.01,2013-06-15 05:57:00,
2013-06-14 23:02:00,61.2,54.3,29.38,SE,135,58.0,58.0,78,0.00,,OVC015,10.83,VWS V14.01,2013-06-15 06:02:00,
2013-06-14 23:07:00,61.0,54.1,29.38,SE,135,58.0,58.0,78,0.00,,OVC015,10.83,VWS V14.01,2013-06-15 06:07:00,
2013-06-14 23:12:00,60.8,53.9,29.38,SE,135,58.0,58.0,78,0.00,,OVC015,10.83,VWS V14.01,2013-06-15 06:12:00,
2013-06-14 23:17:00,60.8,54.3,29.35,SE,135,58.0,58.0,79,0.00,,OVC015,10.83,VWS V14.01,2013-06-15 06:17:00,
2013-06-14 23:22:00,60.8,54.3,29.35,SE,135,58.0,58.0,79,0.00,,OVC015,10.83,VWS V14.01,2013-06-15 06:22:00,
2013-06-14 23:27:00,60.8,54.3,29.35,SE,135,58.0,58.0,79,0.00,,OVC015,10.83,VWS V14.01,2013-06-15 06:27:00,
2013-06-14 23:32:00,61.0,54.1,29.35,SE,135,58.0,58.0,78,0.00,,OVC015,10.83,VWS V14.01,2013-06-15 06:32:00,
2013-06-14 23:37:00,60.8,54.3,29.35,SE,135,58.0,58.0,79,0.00,,OVC015,10.83,VWS V14.01,2013-06-15 06:37:00,
2013-06-14 23:42:00,60.6,54.1,29.35,SE,135,58.0,58.0,79,0.00,,OVC015,10.83,VWS V14.01,2013-06-15 06:42:00,
2013-06-14 23:47:00,60.6,54.1,29.35,SE,135,58.0,58.0,79,0.00,,OVC015,10.83,VWS V14.01,2013-06-15 06:47:00,
2013-06-14 23:52:00,60.6,54.1,29.35,SE,135,58.0,58.0,79,0.00,,OVC015,10.83,VWS V14.01,2013-06-15 06:52:00,
2013-06-14 23:57:00,60.8,54.3,29.35,SE,135,58.0,58.0,79,0.00,,OVC015,10.83,VWS V14.01,2013-06-15 06:57:00,